Preview of NWS' New Version of Forecast
This preview is not operational and should not be used for support decisions.

Regional Weather Roundup (RWR)

Issued by National Weather Service (NWS)

                            
000
ASUS46 KPQR 190010
RWROR 

OREGON REGIONAL WEATHER ROUNDUP
NATIONAL WEATHER SERVICE PORTLAND OR
500 PM PDT TUE JUN 18 2019

NOTE: "FAIR" INDICATES FEW OR NO CLOUDS BELOW 12,000 FEET WITH
NO SIGNIFICANT WEATHER AND/OR OBSTRUCTIONS TO VISIBILITY.

ORZ001>013-190100-
NORTHWEST OREGON

  
CITY           SKY/WX    TMP DP  RH WIND       PRES   REMARKS
ASTORIA        CLOUDY    60  48  64 NW13      30.29F                  
6HR MIN TEMP:  57; 6HR MAX TEMP:  62; 6HR PCP: TRACE;                

TILLAMOOK      SUNNY     63  46  55 W21G31    30.29S                  
PORTLAND       MOSUNNY   73  48  41 NW13      30.21F                  
6HR MIN TEMP:  66; 6HR MAX TEMP:  73;                                

VANCOUVER WA   SUNNY     71  48  43 W13G20    30.20F                  
6HR MIN TEMP:  65; 6HR MAX TEMP:  71;                                

SCAPPOOSE      SUNNY     69  48  47 W9G18     30.21F                  
6HR MIN TEMP:  65; 6HR MAX TEMP:  71;                                

HILLSBORO      SUNNY     70  48  45 NW13      30.21F                  
6HR MIN TEMP:  65; 6HR MAX TEMP:  72;                                

AURORA         SUNNY     74  50  42 NW6       30.20F                  
6HR MIN TEMP:  67; 6HR MAX TEMP:  75;                                

MCMINNVILLE    SUNNY     75  52  44 NE12      30.18F                  
6HR MIN TEMP:  67; 6HR MAX TEMP:  76;                                

SALEM          SUNNY     76  50  40 VRB3      30.17S                  
6HR MIN TEMP:  66; 6HR MAX TEMP:  77;                                

CORVALLIS      SUNNY     77  55  46 NW14      30.18S                  
EUGENE         MOSUNNY   78  53  41 N10       30.17F                  
6HR MIN TEMP:  71; 6HR MAX TEMP:  79;                                

$$

ORZ021-028-190100-
SOUTHWEST OREGON

  
CITY           SKY/WX    TMP DP  RH WIND       PRES   REMARKS
NORTH BEND     SUNNY     62  50  64 N28G38    30.24F                  
6HR MIN TEMP:  61; 6HR MAX TEMP:  64;                                

BROOKINGS      SUNNY     80  56  43 NW15      30.00S                  
ROSEBURG       SUNNY     82  50  32 N9        30.13S                  
6HR MIN TEMP:  74; 6HR MAX TEMP:  84;                                

SEXTON SUMMIT  SUNNY     72  45  37 VRB3G18   30.21S                  
6HR MIN TEMP:  66; 6HR MAX TEMP:  74;                                

GRANTS PASS    FAIR      84  41  21 N10G18    30.11S                  
MEDFORD        SUNNY     89  37  16 NW14G20   30.05F                  
6HR MIN TEMP:  77; 6HR MAX TEMP:  91;                                

$$

ORZ014>016-041-190100-
COLUMBIA GORGE

  
CITY           SKY/WX    TMP DP  RH WIND       PRES   REMARKS
TROUTDALE      MOSUNNY   72  49  44 NW8       30.20F                  
6HR MIN TEMP:  65; 6HR MAX TEMP:  74;                                

HOOD RIVER     SUNNY     73  43  33 W9G18     30.12F                  
THE DALLES     SUNNY     78  44  29 NW25G33   30.05F                  
6HR MIN TEMP:  73; 6HR MAX TEMP:  79;                                

$$

ORZ029>031-041-044-049-050-061>064-502-503-505>511-190100-
EASTERN OREGON

  
CITY           SKY/WX    TMP DP  RH WIND       PRES   REMARKS
MADRAS         SUNNY     77  32  19 NW26      30.12F                  
REDMOND        SUNNY     81  36  19 N12G20    30.12S                  
6HR MIN TEMP:  75; 6HR MAX TEMP:  83;                                

BEND           SUNNY     81  28  15 W12G20    30.12F                  
PRINEVILLE     SUNNY     77  32  19 NW17      30.12F                  
KLAMATH FALLS  SUNNY     84  35  17 N15       30.12S                  
6HR MIN TEMP:  74; 6HR MAX TEMP:  86;                                

LAKEVIEW       SUNNY     82  41  23 SE12      30.13F                  
HERMISTON      MOSUNNY   85  48  27 SW16      29.96F                  
6HR MIN TEMP:  80; 6HR MAX TEMP:  88;                                

PENDLETON      MOSUNNY   82  43  25 W12G24    29.99F                  
6HR MIN TEMP:  76; 6HR MAX TEMP:  84;                                

JOHN DAY       SUNNY     80  35  19 N10G20    30.08F                  
MEACHAM        MOSUNNY   72  41  32 VRB7      30.10F                  
6HR MIN TEMP:  65; 6HR MAX TEMP:  73;                                

LA GRANDE      MOSUNNY   78  47  33 MISG      30.04F                  
6HR MIN TEMP:  73; 6HR MAX TEMP:  79;                                

BAKER CITY     MOSUNNY   78  46  32 N14       30.04F                  
6HR MIN TEMP:  75; 6HR MAX TEMP:  82;                                

BURNS          SUNNY     83  34  17 NW14      30.08F                  
6HR MIN TEMP:  75; 6HR MAX TEMP:  84;                                

ROME             N/A     88  34  14 NW17G25   30.04S                  
6HR MIN TEMP:  77; 6HR MAX TEMP:  89;                                

ONTARIO        SUNNY     93  38  14 NW15G22   29.93F                  
6HR MIN TEMP:  83; 6HR MAX TEMP:  94;                                

$$